Tracking 29606 objects as of 18-Sep-2024
HD Live streaming from Space Station
objects crossing your sky now

GALAXY 3R

Track GALAXY 3R now!
GALAXY 3R is classified as:


NORAD ID: 23741
Int'l Code: 1995-069A
Perigee: 35,772.6 km
Apogee: 35,826.0 km
Inclination: 12.7 °
Period: 1,436.4 minutes
Semi major axis: 42170 km
RCS: 12.3125 m2 (large)
Launch date: December 15, 1995
Source: United States (US)
Launch site: AIR FORCE EASTERN TEST RANGE (AFETR)

24 C-band, 16 Ku-band; North America, Caribbean; 140 television channels.
Your satellite tracking list
Your tracking list is empty




NASA's NSSDC Master Catalog

Two Line Element Set (TLE):
1 23741U 95069A   24261.28984175 -.00000262  00000-0  00000-0 0  9996
2 23741  12.6764  20.7515 0006331 127.6056 236.4341  1.00252058105423
Source of the keplerian elements: AFSPC